Terminal Aerodrome Forecast
Issued by NWS North Platte, NE

Home | Current Version | Previous Version | Text Only | Print | Product List | Glossary On
Versions: 1 2 3 4 5 6 7 8 9 10 11 12 13
000
FTUS43 KLBF 230500
TAFVTN
TAF
KVTN 230520Z 2306/2406 24006KT P6SM SKC
     FM231000 27006KT P6SM BKN120
     FM231400 31012G18KT P6SM BKN120
     FM240000 31006KT P6SM SKC=

USA.gov is the U.S. government's official web portal to all federal, state and local government web resources and services.